Voltar ao catálogo

KUIPER-00081

AtivoComunicaçõesLEO
NORAD 65132·PAYLOAD·🇺🇸 United States

Lançado Aug 11, 2025 de Cape Canaveral Space Force Station

Loading…

Próximas Passagens (próximas 24 horas)

TLE

AtualizadoSource: CelesTrak SupGP

Época: Sep 15, 2026, 01:23 UTC

1 65132C 25171A   26258.05775463 -.00001366  00000+0 -17875-3 0  2589
2 65132  51.9008  30.6868 0000505 111.8093 153.0326 14.79936830    17

Acompanhe KUIPER-00081 em tempo real com AllMySat

Download on the App Store